Location: Castifao
(42.5040°N, 9.1124°E)
Time: 15:19:18
(UTC+00:00)

Cosmos 1626 - Pass Details

Date: 23 January 2020
Orbit: 492 x 495 km, 82.5° (Epoch: 27 February)

Event Time Altitude Azimuth Distance (km) Brightness Sun altitude
Rises 17:11:21 0° 203° (SSW) 2,563 6.4 -8.8°
Reaches altitude 10° 17:13:32 10° 211° (SSW) 1,687 5.6 -9.1°
Maximum altitude 17:17:02 40° 282° (WNW) 740 3.5 -9.8°
Drops below altitude 10° 17:20:34 10° 353° (N) 1,702 4.7 -10.4°
Sets 17:22:47 0° 1° (N) 2,591 5.6 -10.8°
